This demonstration page uses our WeatherBlox Daily Observations layout. Learn more.

Left ArrowRight Arrow

Hourly Observations for June 1, 2015

Temp ( °F °C ) Dew Point ( °F °C ) Humidity (%) Winds ( mph kmh ) Pressure ( in mb ) Visibility ( mi km ) Precip ( " mm )
12:58 am 00:58 Cloudy 58 14.7 46 7.6 63 63 E 3 6 30.15 1021 10 16 0.00 0.00
1:58 am 01:58 Cloudy 58 14.3 46 8 66 66 E 6 9 30.14 1021 10 16 0.00 0.00
2:58 am 02:58 Mostly Cloudy 56 13.3 50 9.8 80 80 ESE 6 9 30.14 1021 10 16 0.00 0.00
3:58 am 03:58 Mostly Cloudy 56 13.3 51 10.3 82 82 Calm 30.15 1021 10 16 0.00 0.00
4:58 am 04:58 Mostly Cloudy 54 12 51 10.4 90 90 Calm 30.14 1021 10 16 0.00 0.00
5:58 am 05:58 Partly Cloudy 54 12.2 51 10.7 91 91 Calm 30.15 1021 10 16 0.00 0.00
6:58 am 06:58 Cloudy 56 13.4 53 11.7 90 90 Calm 30.17 1022 10 16 0.00 0.00
7:58 am 07:58 Mostly Cloudy 60 15.5 55 12.5 82 82 ESE 1 2 30.16 1022 10 16 0.00 0.00
8:58 am 08:58 Partly Cloudy 63 17.1 55 12.5 75 75 Calm 30.17 1022 10 16 0.00 0.00
9:58 am 09:58 Sunny 65 18.6 56 13.1 71 71 SE 2 4 30.16 1021 10 16 0.00 0.00
10:54 am 10:54 Mostly Cloudy 66 19 55 13 68 68 ESE 1 2 30.12 1020 10 16 0.00 0.00
10:58 am 10:58 Mostly Cloudy 67 19.2 55 12.6 66 66 SSE 2 4 30.15 1021 10 16 0.00 0.00
11:07 am 11:07 Partly Cloudy 68 20 55 13 64 64 ESE 2 4 30.12 1020 10 16 0.00 0.00
11:58 am 11:58 Partly Cloudy 69 20.4 55 12.8 62 62 Calm 30.15 1021 10 16 0.00 0.00
12:58 pm 12:58 Partly Cloudy 71 21.6 55 12.8 57 57 Calm 30.14 1021 10 16 0.00 0.00
1:58 pm 13:58 Sunny 72 22.4 55 12.5 54 54 ESE 12 19 30.12 1020 10 16 0.00 0.00
2:58 pm 14:58 Sunny 73 22.8 54 12.2 51 51 S 10 17 30.11 1020 10 16 0.00 0.00
3:58 pm 15:58 Sunny 74 23.1 54 12.3 51 51 S 10 17 30.09 1019 10 16 0.00 0.00
4:58 pm 16:58 Sunny 74 23.4 54 12.1 49 49 SE 10 17 30.07 1018 10 16 0.00 0.00
5:58 pm 17:58 Sunny 74 23.3 53 11.8 48 48 SSE 9 15 30.07 1018 10 16 0.00 0.00
6:58 pm 18:58 Partly Cloudy 65 18.6 45 7.2 48 48 E 9 15 30.12 1020 10 16 0.00 0.00
7:58 pm 19:58 Sunny 71 21.4 53 11.6 54 54 SE 9 15 30.06 1018 10 16 0.00 0.00
8:58 pm 20:58 Clear 65 18.4 53 11.5 64 64 SE 6 9 30.06 1018 10 16 0.00 0.00
9:58 pm 21:58 Clear 61 16 52 11 72 72 ESE 9 15 30.07 1018 10 16 0.00 0.00
10:58 pm 22:58 Clear 61 16.2 52 11 71 71 SSE 7 11 30.08 1019 10 16 0.00 0.00
11:58 pm 23:58 Clear 62 16.4 54 12.2 76 76 SSE 8 13 30.08 1019 10 16 0.00 0.00

Powered by AerisWeather